Regional Weather Roundup
Issued by NWS

Home | Current Version | Previous Version | Text Only | Print | Product List | Glossary Off
Versions: 1 2 3 4 5 6 7 8 9 10 11 12 13 14 15 16 17 18 19 20 21 22 23 24 25 26 27 28 29 30 31 32 33 34 35 36 37 38 39 40 41 42 43 44 45 46 47 48 49 50

000
ASUS43 KOAX 011010
RWRNE

WEATHER ROUNDUP FOR NEBRASKA
NATIONAL WEATHER SERVICE OMAHA NE
500 AM CDT WED JUL 01 2015

NOTES: SATELLITE DATA IS BEING USED TO AUGMENT CLOUD COVER ABOVE
       12000 FEET.
       "FAIR" INDICATES FEW OR NO CLOUDS BELOW 12,000 FEET WITH NO
       SIGNIFICANT WEATHER AND/OR OBSTRUCTIONS TO VISIBILITY.

  * THESE STATIONS DO NOT REPORT WEATHER SUCH AS RAIN...SNOW OR FOG.

NEZ001>004-019>022-054>056-011100-
NEBRASKA PANHANDLE

CITY           SKY/WX    TMP DP  RH WIND       PRES   REMARKS
SCOTTSBLUFF    PTCLDY    63  58  83 NW5       30.00R
ALLIANCE       PTCLDY    65  62  90 N7        29.99R
CHADRON        PTCLDY    65  63  93 W6        29.94F
KIMBALL          N/A    N/A N/A N/A MISG        N/A
SIDNEY         CLEAR     62  58  86 NW13      30.01S
$$

NEZ057>060-069>072-079>082-011100-
SOUTHWEST NEBRASKA

CITY           SKY/WX    TMP DP  RH WIND       PRES   REMARKS
NORTH PLATTE   CLEAR     63  60  90 NE6       29.86F
IMPERIAL       CLOUDY    76  57  51 NW9       29.88R
LEXINGTON      CLEAR     64  63  94 N5        29.82R FOG
MCCOOK         CLOUDY    73  60  63 N8        29.80S
OGALLALA       PTCLDY    69  64  84 NW6       29.91R
$$

NEZ005>010-023>029-035>040-094-011100-
NORTH CENTRAL NEBRASKA

CITY           SKY/WX    TMP DP  RH WIND       PRES   REMARKS
VALENTINE      CLEAR     59  58  96 S6        29.87F
AINSWORTH      CLEAR     61  60  97 SE3       29.89F
BROKEN BOW     CLEAR     63  60  90 CALM      29.84R
O`NEILL        PTCLDY    63  63  98 N3        29.88R FOG
ORD            CLEAR     63  60  90 CALM      29.81F
THEDFORD       CLEAR     61  59  96 CALM      29.89F FOG
$$

NEZ041-046>049-061>064-073>077-083>087-011100-
SOUTH CENTRAL NEBRASKA

CITY           SKY/WX    TMP DP  RH WIND       PRES   REMARKS
GRAND ISLAND   CLEAR     67  62  84 SE8       29.80F
AURORA         PTCLDY    67  64  90 SE10      29.80F
HASTINGS       PTCLDY    68  63  84 SE10      29.78F
HEBRON         CLOUDY    70  62  75 SE13G20   29.79F
HOLDREGE       PTCLDY    66  64  91 NE5       29.77F
KEARNEY *      PTCLDY    64  61  88 E6        29.79F
YORK           MOCLDY    66  64  94 SE12      29.79F
$$

NEZ011>018-030>034-042>045-011100-
NORTHEAST NEBRASKA

CITY           SKY/WX    TMP DP  RH WIND       PRES   REMARKS
NORFOLK        PTCLDY    65  63  93 CALM      29.84S FOG
ALBION         PTCLDY    65  61  87 E3        29.82F
BLAIR          PTCLDY    65  64  93 E7        29.83F FOG
COLUMBUS *     PTCLDY    64  57  77 E6        29.82R
FREMONT        MOCLDY    67  65  93 E7        29.82F
TEKAMAH        PTCLDY    67  65  93 E6        29.83F FOG
WAYNE          MOCLDY    65  64  96 NE5       29.85S
$$

NEZ050>053-065>068-078-088>093-011100-
SOUTHEAST NEBRASKA

CITY           SKY/WX    TMP DP  RH WIND       PRES   REMARKS
LINCOLN        MOCLDY    69  66  90 N7        29.80F
OMAHA EPPLEY   MOCLDY    68  65  90 SE8       29.83F
BEATRICE       CLOUDY    69  64  85 SE15G22   29.80F
FALLS CITY     CLOUDY    69  66  90 S14G23    29.83F
NEBRASKA CITY  LGT RAIN  67  66  96 CALM      29.84R
PLATTSMOUTH    MOCLDY    67  64  92 CALM      29.83S
$$

NEZ044-045-051>053-067-011100-
OMAHA AREA

CITY           SKY/WX    TMP DP  RH WIND       PRES   REMARKS
OMAHA EPPLEY   MOCLDY    68  65  90 SE8       29.83F
BLAIR          PTCLDY    65  64  93 E7        29.83F FOG
FREMONT        MOCLDY    67  65  93 E7        29.82F
MILLARD        MOCLDY    67  65  93 E3        29.82F
OFFUTT AFB     MOCLDY    67  66  96 E8        29.81F
PLATTSMOUTH    MOCLDY    67  64  92 CALM      29.83S
WAHOO          FAIR      67  65  92 E5        29.82S
$$


USA.gov is the U.S. government's official web portal to all federal, state and local government web resources and services.